Tracking 31027 objects as of 19-Jul-2025
HD Live streaming from Space Station
objects crossing your sky now

FENGYUN 1C DEB

Track FENGYUN 1C DEB now!
10-day predictions


NORAD ID: 31674
Int'l Code: 1999-025CCG
Perigee: 720.0 km
Apogee: 758.0 km
Inclination: 98.9 °
Period: 99.4 minutes
Semi major axis: 7109 km
RCS: 0.0141 m2 (small)
Launch date: May 10, 1999
Source: People's Republic of China (PRC)
Launch site: Taiyaun Space Center, China (TSC)

Note: This is SATELLITE DEBRIS
Your satellite tracking list
TITAN 3C TRANSTAGE DEB
Track 1 satellite(s)




NASA's NSSDC Master Catalog

Two Line Element Set (TLE):
1 31674U 99025CCG 25194.88853063  .00006716  00000-0  18083-2 0  9990
2 31674  98.9293 222.2680 0026779  29.6710 330.5994 14.48101967942314
Source of the keplerian elements: AFSPC